Wind_Speed
7 7 7 6 6 7 7 7 7 8 8 8 8 8 8 8 8 8 7 6 6 7 6 7 7 7 7 7 9 10 11 12 11 12 15 9 9 13 12 10 9 10 13 12 12 12 12 12 12 12 11 12 13 14 13 13 13 10 6 6 7 7 8 5 5 5 4 8 7 6 6 3 3 4 5 7 8 10 3 11 18 15 13 11 9 9 12 13
7 7 7 7 7 7 7 8 8 8 9 9 9 9 9 9 9 9 8 8 7 8 7 7 8 7 7 7 8 10 12 13 14 16 17 11 11 14 12 12 11 12 14 15 15 15 14 13 13 13 13 13 13 13 13 13 13 10 6 6 9 9 5 6 7 5 6 7 5 3 3 1 4 5 5 8 7 6 2 15 17 15 13 8 9 10 11 11
7 7 7 7 7 8 7 8 9 10 10 10 10 9 10 10 10 10 9 9 8 8 8 8 8 8 7 7 8 11 13 14 16 18 14 10 12 12 11 12 12 13 15 16 14 14 14 12 12 13 13 13 12 14 12 12 11 11 9 6 10 8 5 6 5 5 5 5 5 3 4 2 6 5 5 6 8 8 3 13 11 13 12 8 10 9 10 12
8 7 7 7 8 8 8 8 9 10 10 10 10 10 10 10 11 11 10 10 9 9 9 8 9 8 7 7 8 10 13 14 12 11 9 7 9 10 10 10 13 14 15 15 12 13 13 11 12 13 13 12 12 13 11 10 9 10 10 9 11 5 7 4 3 6 5 6 6 5 4 5 7 5 5 9 8 6 4 10 10 13 11 9 9 9 10 12
9 8 8 8 8 8 8 9 10 10 10 10 11 11 11 11 11 11 11 10 9 9 9 9 9 9 8 7 8 9 10 8 1 6 5 5 7 8 8 10 12 13 15 16 11 13 14 13 13 13 13 10 11 11 10 13 11 9 9 14 16 10 8 3 3 4 5 7 8 8 8 7 7 5 8 10 10 4 7 7 12 16 11 9 9 10 11 12
10 9 9 9 9 9 9 9 10 10 10 11 11 11 12 12 12 12 11 10 9 9 9 9 9 9 8 6 8 9 6 2 2 5 6 4 7 7 6 8 11 14 18 16 12 14 15 15 14 13 12 10 11 10 10 15 13 9 9 14 17 13 10 4 3 3 4 7 9 8 8 8 7 7 10 10 12 5 8 6 9 16 11 10 9 9 9 11
10 10 10 9 9 9 9 9 10 11 11 11 12 12 12 12 13 12 11 10 9 9 8 9 9 10 8 7 8 8 11 12 7 7 7 5 7 7 6 8 12 17 21 16 13 15 16 16 15 14 11 9 11 12 12 15 14 11 9 12 15 11 10 10 6 3 5 7 8 9 8 9 8 9 11 8 12 7 6 4 10 15 10 11 9 9 9 9
10 10 10 10 9 9 10 10 10 11 12 12 12 12 13 13 13 12 12 10 9 8 8 8 9 9 8 6 6 8 16 16 10 10 8 6 8 7 7 9 13 20 22 16 14 15 16 16 16 14 11 10 11 12 12 12 12 13 11 12 13 9 8 11 9 7 9 9 9 10 9 12 11 12 12 7 11 7 3 3 11 13 8 10 9 9 9 8
10 10 10 10 10 10 10 11 11 12 13 13 13 13 13 13 13 12 11 10 9 8 7 7 8 8 8 6 6 9 10 7 8 13 11 9 10 9 7 10 15 21 21 14 14 15 15 15 16 15 12 12 11 10 11 9 8 10 14 15 13 12 10 10 11 10 11 10 10 10 11 13 13 12 10 13 15 5 3 4 13 13 9 9 8 8 8 8
10 10 10 10 10 10 11 12 12 13 14 14 14 13 13 13 13 12 11 10 9 9 7 7 8 7 6 6 6 7 3 1 5 10 11 9 10 10 8 11 16 19 17 12 14 15 15 15 15 16 15 13 12 10 9 10 7 6 11 14 13 14 13 12 11 11 11 11 11 10 11 11 13 11 7 15 15 4 4 9 16 11 7 6 5 8 11 8
10 10 11 11 10 10 12 13 13 13 14 14 14 13 13 13 13 12 11 9 9 8 7 7 7 7 6 5 10 9 2 1 2 4 8 7 9 12 12 13 16 17 14 12 13 14 15 14 11 11 10 8 10 9 10 14 12 9 9 10 12 13 14 15 12 11 10 9 12 12 11 12 13 10 10 18 12 7 6 10 12 8 8 6 5 8 10 7
11 11 11 12 11 11 12 13 13 14 15 14 14 13 12 13 13 13 11 9 9 8 7 7 7 7 6 8 15 14 6 4 4 4 6 8 10 11 12 13 15 15 12 11 11 12 13 11 9 11 7 4 8 8 8 14 15 14 10 7 11 12 13 15 14 14 10 9 12 10 9 11 12 12 16 21 10 9 8 10 9 9 12 10 10 9 9 9
11 12 12 12 12 12 13 13 13 13 15 14 14 13 12 13 12 12 11 9 8 7 7 7 7 7 6 10 13 8 8 8 6 7 8 10 11 11 12 12 13 13 11 10 10 11 12 10 9 13 11 8 9 5 5 9 12 13 10 7 10 9 11 15 16 14 12 11 9 4 5 8 11 15 20 23 13 11 10 12 12 11 12 12 13 11 10 12
11 12 12 13 13 13 13 13 13 13 14 14 13 12 12 13 12 11 11 9 8 7 7 6 7 5 6 11 8 3 10 9 8 10 11 13 12 12 12 13 13 11 10 9 7 8 10 10 9 12 14 15 13 8 7 8 8 9 9 8 7 7 10 14 16 13 12 11 8 5 5 8 12 15 23 24 15 14 12 16 19 14 13 12 12 11 11 13
11 12 12 13 14 13 13 13 13 13 14 13 12 12 12 12 11 11 10 9 7 7 5 5 6 6 8 14 10 9 13 10 11 12 13 15 14 13 13 14 14 10 9 8 5 5 8 8 9 11 13 15 14 10 7 7 6 6 8 7 7 8 9 9 14 13 9 8 10 8 7 8 14 15 22 21 15 14 12 18 21 16 15 13 11 11 10 12
11 12 13 14 14 13 13 13 13 13 13 12 11 12 12 11 11 10 9 8 7 5 3 2 3 4 7 10 8 12 14 13 14 13 14 16 14 14 13 13 13 10 9 9 6 5 7 8 11 12 12 11 9 8 7 6 7 7 7 7 8 9 6 6 13 14 11 7 9 10 8 9 8 4 10 16 14 15 11 16 19 15 14 13 11 10 10 12
12 13 13 14 14 13 13 13 13 13 12 11 11 11 11 11 10 9 8 6 5 3 4 5 1 6 10 7 6 13 17 15 15 15 16 16 15 14 14 12 13 11 9 9 8 7 9 10 9 10 11 9 7 8 7 7 7 7 7 7 9 11 7 6 12 13 12 7 7 10 8 11 7 3 8 13 11 14 11 15 21 18 14 14 12 10 11 13
13 13 14 14 13 12 12 13 13 12 11 10 10 10 10 11 10 10 7 4 3 1 4 7 5 6 10 13 15 15 16 15 14 18 17 16 16 14 14 14 12 12 11 10 10 11 10 10 9 7 7 8 8 8 7 8 9 8 9 7 7 11 8 3 9 10 9 8 7 10 8 10 9 5 8 12 12 11 11 12 21 20 16 16 11 11 13 12
13 13 14 13 12 11 11 11 12 12 10 8 8 9 9 9 9 10 8 6 8 5 4 9 15 7 6 7 17 11 10 14 14 18 18 17 17 14 14 14 13 15 12 8 10 13 11 8 9 7 7 9 10 11 10 13 14 8 6 7 7 8 8 7 8 10 6 6 7 9 9 9 10 10 10 13 12 11 12 8 19 18 18 19 15 15 16 10
13 13 13 12 11 10 10 10 11 11 9 7 6 7 7 7 6 5 7 12 18 16 11 10 20 16 10 4 12 7 10 13 12 17 19 18 17 15 15 15 14 14 11 8 9 13 12 7 8 8 9 12 13 14 15 18 16 10 10 7 8 8 9 10 8 13 6 3 4 6 8 10 10 11 11 10 11 13 9 7 19 19 19 21 19 17 14 9
13 13 13 12 10 9 9 10 10 9 8 6 5 7 6 7 5 2 3 12 20 22 22 17 16 18 16 9 9 12 11 10 12 15 18 19 18 15 15 16 13 10 11 13 10 12 12 8 9 12 13 14 14 15 15 18 16 11 10 8 7 6 6 8 4 11 11 5 4 8 10 11 11 11 12 14 11 12 11 9 14 20 21 22 22 22 19 15
12 12 13 11 9 8 9 10 10 8 7 5 6 8 6 8 7 6 7 10 16 20 23 22 18 19 17 12 7 10 10 11 13 15 18 20 19 15 15 16 12 9 11 14 10 9 9 8 12 14 14 14 14 14 14 16 14 8 8 8 6 5 4 8 9 6 9 5 4 8 10 10 11 12 12 14 15 10 12 13 13 16 20 22 25 25 22 21
12 12 12 10 8 8 9 10 9 9 7 6 7 8 7 9 7 7 9 10 15 18 21 22 21 20 19 16 11 9 10 11 13 17 20 19 20 19 15 14 12 11 12 12 10 8 7 10 15 16 14 14 14 14 12 12 10 6 7 8 7 8 7 7 5 5 3 2 2 5 9 8 10 12 11 14 17 18 15 15 16 17 17 19 25 25 21 22
12 12 12 9 7 7 9 9 8 8 6 4 6 8 8 10 7 8 9 9 11 13 19 21 21 21 20 19 15 15 15 13 13 17 22 19 20 19 14 13 13 11 11 13 15 12 9 13 19 18 15 15 15 13 10 7 6 7 9 10 8 10 11 10 6 3 2 3 1 4 9 7 10 11 10 11 13 17 21 15 15 17 20 20 24 29 27 24
12 12 11 7 6 7 6 6 4 6 6 5 6 5 6 8 5 6 7 7 8 10 16 18 18 19 20 19 16 18 18 16 16 16 23 21 20 16 13 14 12 10 13 16 15 12 12 16 17 16 16 17 15 11 10 8 6 8 11 13 13 13 13 13 13 8 5 3 5 8 8 6 9 13 12 11 10 14 19 15 13 15 19 20 19 28 29 25
12 12 10 6 5 5 2 1 2 1 5 8 5 2 3 4 4 5 5 5 5 6 10 13 14 13 17 19 16 15 14 15 21 19 20 22 20 16 12 11 10 10 13 13 11 8 9 15 13 10 11 13 12 9 10 11 8 7 9 12 15 15 15 15 15 11 5 4 6 8 8 5 7 11 12 13 14 15 15 12 12 14 16 17 15 21 25 26
12 11 9 6 5 5 5 2 3 4 4 3 1 1 2 3 4 4 3 5 5 7 11 10 10 11 15 17 17 15 7 9 19 22 21 22 21 19 13 10 10 10 11 9 8 7 9 16 13 10 9 7 8 9 10 12 9 7 10 12 15 17 17 15 12 9 6 6 9 10 10 8 6 7 9 11 13 14 14 14 14 12 14 16 13 21 25 25
12 10 9 5 5 6 8 7 6 6 3 4 0 2 3 4 4 3 3 4 3 8 11 8 7 9 13 15 19 19 8 4 13 21 24 22 21 19 14 12 12 11 12 10 8 8 9 14 13 12 11 8 8 10 11 13 10 9 12 11 11 12 10 9 7 8 8 7 9 10 11 9 6 6 9 12 12 10 11 12 9 10 14 17 14 24 23 22
11 10 9 6 5 4 5 9 11 9 1 5 4 4 4 4 2 2 4 3 4 8 8 8 9 9 12 13 18 22 14 7 8 17 25 22 20 19 13 14 15 12 15 13 11 9 9 13 13 10 9 8 9 11 13 14 10 10 13 7 6 9 8 6 7 7 8 8 9 10 11 9 6 6 7 7 7 6 9 10 7 8 12 9 12 23 16 15
11 10 9 6 5 2 3 8 9 7 4 5 5 5 5 4 3 4 4 2 4 7 9 9 10 12 13 12 14 18 16 11 7 14 24 21 20 19 15 16 17 13 13 14 13 12 9 12 12 10 11 10 11 12 13 13 10 10 11 7 6 7 6 7 7 7 6 8 10 12 13 10 7 6 4 1 3 4 5 3 4 2 1 7 9 19 14 13
11 10 9 8 8 8 6 5 2 2 4 7 7 5 5 3 4 5 4 2 3 8 11 8 10 13 15 13 11 14 14 11 8 11 16 15 16 16 13 12 12 10 9 10 11 13 12 11 9 9 12 11 10 11 11 10 9 8 8 5 5 5 6 7 7 7 7 8 10 12 14 13 10 5 1 4 7 6 5 3 5 7 7 9 4 14 15 14
12 11 10 9 10 12 10 9 9 4 3 9 8 5 5 4 5 6 3 1 2 7 8 9 11 12 15 14 11 14 13 10 10 11 12 11 11 12 11 9 8 8 9 8 10 11 12 11 9 9 10 11 10 8 8 8 8 8 7 6 6 5 6 7 6 7 7 8 10 12 13 10 5 2 7 7 6 6 5 5 3 4 4 4 4 11 15 12
11 11 11 10 12 15 13 11 12 9 6 8 7 5 6 5 5 8 7 4 3 5 6 11 13 11 14 13 11 14 13 10 12 12 11 12 10 11 14 14 12 9 8 8 9 9 9 10 14 13 10 13 14 8 7 8 9 10 8 7 7 6 6 6 6 6 7 8 10 12 12 7 2 6 7 5 4 5 5 5 5 3 2 7 7 11 13 11
11 11 11 11 12 15 16 15 13 9 5 5 6 6 7 6 6 8 9 7 4 6 3 6 11 9 11 10 10 12 11 10 13 13 12 13 10 9 13 16 17 13 8 8 8 9 9 9 13 13 8 13 16 13 10 9 9 10 8 8 8 6 6 6 5 6 7 6 6 8 9 4 2 2 3 5 5 7 6 6 6 5 2 3 4 8 8 10
9 9 10 10 12 14 17 17 13 9 6 6 6 6 7 6 6 8 7 3 3 6 5 4 5 7 8 9 11 11 9 9 13 14 11 11 10 9 11 13 17 15 9 8 6 7 11 8 9 12 10 12 15 15 15 12 8 9 9 9 8 8 7 5 5 5 4 3 4 4 2 4 3 6 4 4 5 6 6 6 6 5 4 3 1 4 5 7
5 4 7 8 9 11 15 17 14 12 9 7 7 6 7 7 5 3 4 5 2 2 4 5 7 8 8 8 10 12 11 8 10 11 10 11 12 12 11 11 15 17 12 8 5 5 9 7 8 12 13 14 15 14 15 13 7 6 8 9 8 10 9 6 6 5 3 4 4 5 2 5 5 6 5 4 4 6 6 6 6 6 5 4 4 4 2 2
5 2 6 8 8 8 11 14 15 13 10 8 7 6 7 9 7 1 5 7 4 1 1 3 7 8 8 7 8 11 11 7 8 9 8 10 10 13 14 12 15 19 17 12 7 5 6 6 8 13 14 15 16 15 15 15 12 6 6 8 8 10 10 6 5 5 6 6 5 6 6 4 4 3 5 4 3 5 5 6 6 7 9 8 8 11 11 6
9 5 9 10 9 10 12 13 14 14 10 8 8 9 8 7 5 1 5 7 4 1 4 6 4 6 8 7 7 11 11 8 8 8 8 8 8 11 13 12 14 18 21 18 9 4 5 5 8 13 13 12 13 13 12 14 16 12 7 6 6 7 7 5 5 5 6 6 4 7 8 1 2 0 3 3 2 5 6 8 7 7 10 10 10 12 13 11
9 6 8 9 12 13 14 14 15 13 9 7 7 7 8 8 4 2 4 5 5 2 5 7 5 5 7 6 5 8 10 7 7 7 7 6 5 4 6 9 13 15 20 19 9 4 4 3 6 10 11 10 10 10 9 9 13 13 10 8 6 5 5 5 5 5 6 6 4 7 6 2 3 3 2 1 3 6 7 5 4 7 11 12 13 14 14 15
8 5 4 11 12 13 16 15 13 11 8 8 7 6 8 8 4 1 1 4 5 4 5 7 5 4 5 6 8 5 7 6 6 6 6 5 4 4 7 7 10 12 15 17 12 7 6 3 4 7 9 10 8 7 8 8 9 10 9 9 7 5 5 4 3 4 5 5 4 6 3 3 2 3 2 3 4 6 7 5 2 7 13 13 14 15 16 17
7 5 4 11 12 15 19 14 10 9 7 6 9 10 7 3 2 2 2 3 6 5 6 6 6 5 4 5 7 4 4 5 6 6 6 3 3 3 5 10 7 6 9 12 12 8 5 5 5 7 7 9 8 10 13 13 11 10 9 9 9 8 7 6 5 4 5 5 4 3 0 1 2 4 3 4 5 5 5 6 5 10 13 14 15 15 15 16
7 5 6 12 13 18 19 9 7 8 7 7 9 8 1 4 3 2 1 5 6 6 6 5 6 7 5 5 6 4 4 5 5 6 5 1 2 2 6 14 12 6 5 7 9 7 4 3 5 7 7 8 10 11 13 15 15 12 10 10 10 8 7 7 5 3 4 6 5 1 3 2 2 2 5 6 9 8 6 6 8 11 14 14 14 13 12 11
8 3 8 14 15 18 13 6 7 8 8 6 6 5 3 2 7 5 2 5 6 6 5 4 6 6 5 5 6 5 5 4 4 5 2 3 3 3 6 10 11 8 3 4 6 5 4 3 5 7 6 9 11 8 7 12 14 12 10 10 10 10 10 9 4 3 3 2 2 1 1 2 2 4 5 6 11 12 9 9 10 12 14 14 12 11 11 10
5 3 6 12 15 13 8 5 5 7 9 5 3 6 2 2 6 5 3 5 5 4 4 4 5 5 5 5 5 6 5 3 4 6 2 3 2 3 4 4 7 8 5 4 4 2 3 4 5 6 6 7 9 6 6 10 11 7 7 8 11 14 12 5 1 4 3 3 4 1 1 2 4 4 4 6 9 9 9 10 10 12 13 12 10 9 9 11
2 3 6 12 15 12 9 7 4 5 7 5 3 7 6 3 6 5 5 4 3 2 3 4 5 4 4 5 4 6 8 5 3 5 1 3 2 3 5 6 4 5 6 8 8 4 4 4 5 7 7 6 6 5 4 4 3 4 6 8 12 15 9 2 2 2 2 3 5 3 1 4 6 5 4 5 7 7 7 9 9 11 12 10 9 9 10 12
2 3 5 10 13 13 12 12 11 7 5 4 3 7 7 5 6 5 5 5 3 3 4 4 5 5 4 5 6 6 8 7 6 7 3 3 3 4 9 14 12 6 4 8 8 3 2 4 3 4 4 2 3 4 7 7 3 4 9 8 9 12 7 3 2 2 1 1 2 0 6 8 6 6 7 6 7 7 7 8 9 9 9 9 9 10 11 12
2 2 4 8 8 11 11 12 12 7 2 3 4 4 7 6 4 4 4 6 4 4 5 4 4 4 4 5 5 5 7 8 8 8 3 5 5 4 10 14 13 11 7 6 7 4 0 2 3 4 4 3 3 4 8 10 6 4 9 11 12 13 9 2 2 3 3 4 2 1 6 10 8 9 9 9 8 7 7 8 8 9 9 9 10 11 11 12
4 5 8 8 5 6 7 7 9 5 1 3 3 1 4 6 4 4 5 6 5 4 3 3 5 6 6 5 3 4 6 7 7 6 2 4 6 5 7 9 5 11 8 3 3 3 0 1 4 5 5 4 4 5 8 8 6 4 7 9 12 15 13 7 7 9 6 4 2 4 5 9 8 7 10 12 10 9 9 9 9 10 10 10 11 12 13 13
6 8 8 8 4 2 2 1 3 4 2 3 2 1 3 5 4 4 4 3 4 3 3 3 5 7 6 3 4 4 3 4 5 5 5 5 5 3 4 4 4 8 4 2 1 2 1 1 3 4 4 5 4 5 9 10 5 3 7 10 11 12 11 8 9 9 8 6 3 4 7 9 7 7 10 13 13 12 12 12 12 12 12 11 12 14 15 16
7 8 5 5 3 2 1 0 2 3 2 1 1 3 3 4 3 3 3 4 3 3 3 4 5 7 6 3 3 2 2 2 3 3 4 3 2 2 1 1 3 5 2 1 1 0 2 2 1 1 3 4 2 2 7 10 4 2 7 11 11 10 9 6 7 8 7 5 5 8 9 6 5 8 11 13 14 13 13 13 14 14 13 13 14 15 16 17
10 11 9 6 1 3 2 3 2 2 2 2 2 2 1 3 3 2 5 3 3 3 4 6 4 5 7 5 3 1 2 2 3 3 3 4 0 2 2 3 4 3 1 1 1 1 3 3 3 4 4 4 2 2 3 7 5 2 6 10 9 7 5 5 6 7 4 5 8 9 6 3 4 8 11 13 14 14 13 13 12 14 15 15 16 17 17 16
10 11 9 6 1 2 3 3 3 3 2 2 1 2 1 3 4 4 3 7 4 5 4 4 3 2 5 6 4 4 2 3 6 7 6 6 6 3 2 3 5 4 1 1 1 1 2 3 3 3 4 3 1 2 1 2 4 3 4 8 8 6 4 4 8 10 6 3 5 3 4 6 8 9 10 11 13 13 13 13 12 12 14 15 16 16 16 15
Wind_Direction
273 279 278 279 281 282 284 285 287 287 287 285 285 285 286 286 286 285 285 284 283 283 282 286 290 294 302 304 303 298 292 287 280 271 261 241 214 231 235 232 233 218 209 198 188 187 193 205 215 216 218 223 222 232 232 220 227 232 231 242 247 242 242 282 17 14 16 67 61 51 43 328 327 13 333 305 245 238 243 104 96 95 94 87 105 126 135 142
266 273 275 275 274 278 286 287 289 289 286 286 286 286 285 285 285 284 286 284 282 281 282 287 290 295 303 305 307 304 296 294 288 269 256 242 232 241 238 228 224 210 199 188 184 189 196 203 208 208 213 222 215 222 229 213 217 232 236 233 241 247 272 351 19 8 15 40 33 43 57 8 311 335 331 309 294 267 138 104 100 99 102 111 121 125 136 145
260 265 267 268 270 275 282 287 290 288 288 289 289 290 288 286 284 284 284 283 282 281 283 287 290 296 302 306 311 308 305 306 296 275 260 244 239 236 227 223 215 206 196 187 187 195 202 201 202 206 213 224 217 214 221 204 202 226 237 238 237 251 336 354 359 3 9 9 350 348 34 14 280 316 340 308 309 287 153 117 117 114 121 133 129 135 144 157
258 259 260 262 267 272 276 283 286 286 289 290 290 290 289 288 284 283 281 281 282 281 286 287 289 293 299 309 311 315 319 314 291 262 253 235 228 217 214 220 210 205 191 179 191 206 208 209 203 206 218 229 220 214 218 202 198 218 225 244 245 274 339 328 356 360 350 339 329 309 324 309 294 347 326 284 285 278 118 114 128 126 136 146 141 148 152 165
261 257 258 261 265 270 273 278 282 286 289 289 291 290 289 287 282 281 279 280 280 282 286 284 287 287 293 307 308 318 321 319 235 197 215 210 205 199 212 222 208 200 182 172 196 216 213 215 207 208 225 238 223 214 219 215 216 228 229 247 258 287 317 344 17 342 340 320 301 286 282 298 324 330 281 277 281 298 55 72 124 136 153 155 151 152 159 171
265 262 259 262 266 267 268 274 281 285 286 288 289 289 288 285 282 281 278 279 280 283 285 283 285 283 290 298 302 313 292 270 99 193 218 214 204 202 221 221 201 187 174 175 205 219 215 219 212 209 223 238 236 223 218 220 223 239 242 246 257 270 278 299 334 322 336 302 286 283 284 298 313 291 271 270 273 300 37 14 114 131 145 144 154 161 169 176
265 265 262 264 266 268 271 275 281 284 285 284 285 286 285 283 283 281 280 280 280 284 286 285 283 282 288 290 294 290 251 259 281 238 234 238 212 212 229 217 198 182 173 185 215 215 212 218 214 213 221 231 241 235 222 224 224 234 252 251 256 260 257 270 289 307 295 282 276 276 281 285 279 269 268 259 269 296 43 30 106 114 128 137 150 167 181 185
262 263 264 266 268 272 276 278 282 283 282 281 281 283 281 281 281 282 283 282 282 285 287 285 282 284 287 285 295 275 252 256 250 226 243 251 218 222 234 213 198 183 177 192 215 214 213 218 218 216 223 228 235 237 226 228 228 229 247 256 263 270 262 269 277 277 269 264 265 265 263 262 256 262 273 270 268 275 56 83 117 117 127 137 144 161 178 190
260 261 264 267 271 276 279 281 282 282 281 279 279 279 279 279 279 282 284 284 284 282 284 283 277 283 285 287 299 283 261 237 214 225 248 259 234 233 228 204 193 184 182 201 217 216 214 218 224 221 230 245 255 254 231 226 229 226 239 246 255 262 258 256 257 257 257 256 257 255 253 253 250 252 260 259 258 243 104 96 111 118 123 124 132 157 172 188
261 260 263 267 273 281 284 283 282 282 281 279 277 277 278 278 280 283 283 283 282 278 282 278 274 278 281 293 288 273 258 203 237 241 250 260 237 218 197 189 185 183 191 212 218 213 213 215 222 227 243 263 276 275 240 230 241 242 245 248 253 260 260 253 247 251 254 256 255 257 260 256 251 243 237 246 239 182 154 113 102 110 122 118 128 170 177 184
262 263 266 269 273 282 286 285 284 282 281 279 277 276 277 279 281 282 282 282 279 280 280 271 273 272 262 273 264 251 214 171 228 246 251 239 211 191 174 179 178 183 203 221 219 216 219 225 233 239 247 259 263 267 248 244 253 261 259 263 264 263 264 258 253 249 249 258 253 253 260 256 251 241 247 250 215 165 193 130 118 139 136 156 179 188 188 184
265 268 272 273 277 283 286 286 283 281 280 278 276 277 280 280 282 283 284 283 279 281 277 270 267 265 269 267 257 247 236 234 198 197 223 194 184 175 166 179 175 180 209 221 219 224 229 238 256 253 255 266 253 262 258 246 250 258 260 268 265 259 255 247 244 242 235 246 243 240 252 247 243 232 243 250 201 159 194 150 152 148 130 164 183 192 200 196
266 271 276 279 283 287 287 285 282 280 278 277 277 280 282 283 285 286 287 284 280 277 268 266 259 260 271 264 264 252 226 231 209 191 193 179 176 172 171 183 179 184 212 220 218 223 230 241 254 253 261 264 249 285 314 249 244 252 251 254 262 259 248 233 227 227 225 237 230 215 259 248 240 222 230 244 202 174 201 146 136 142 141 164 172 188 199 200
265 272 277 280 286 289 288 285 281 279 277 276 280 283 284 284 286 287 287 282 275 271 262 258 255 246 245 254 273 240 208 208 205 200 191 183 181 183 184 187 191 201 216 225 229 219 225 240 252 258 261 255 257 299 307 252 240 246 241 239 246 257 255 230 208 201 214 225 194 183 259 263 260 227 219 233 197 181 207 149 137 154 163 167 174 194 199 197
268 273 276 280 287 289 289 286 281 278 276 278 282 284 284 284 289 289 284 280 270 266 260 249 240 217 244 265 265 225 213 206 207 204 191 188 188 189 188 186 193 206 210 217 235 222 224 234 238 248 250 249 260 281 270 238 228 231 237 234 223 241 259 216 177 182 210 202 181 209 253 253 268 248 214 207 174 184 205 155 147 156 162 168 182 201 205 196
274 277 280 283 288 289 288 284 280 277 275 280 282 282 285 288 292 286 280 279 271 266 231 205 263 239 259 277 249 217 218 216 211 201 192 193 192 189 186 185 193 203 207 211 226 228 225 229 230 237 244 244 241 247 249 235 222 210 222 241 229 227 238 172 159 182 206 179 179 212 249 256 277 299 173 160 169 201 193 153 149 149 155 167 184 203 203 194
278 282 284 286 289 289 286 282 279 276 276 281 281 284 292 292 287 280 277 271 254 248 189 173 292 258 248 257 228 220 217 211 205 196 194 194 193 190 183 186 197 201 206 210 221 226 219 222 228 233 240 242 228 230 238 232 223 202 211 244 249 241 232 174 163 186 203 187 200 207 233 268 284 40 128 151 196 215 190 161 154 152 148 146 170 207 213 195
281 284 286 287 288 287 284 281 277 276 277 281 284 290 292 285 279 267 259 246 200 179 232 208 191 234 246 236 231 230 212 200 197 193 193 192 195 194 184 189 197 195 202 210 214 217 212 211 220 226 227 230 230 225 224 231 226 202 202 214 248 262 266 188 150 161 181 176 219 230 228 259 265 246 186 179 205 223 228 188 153 152 143 131 157 211 228 207
284 287 288 286 285 284 282 281 278 277 279 280 287 293 289 284 280 263 237 208 186 184 245 195 182 218 315 233 224 227 185 181 185 188 190 189 194 199 190 191 196 194 200 204 199 203 202 200 213 226 221 218 223 224 226 234 233 233 239 223 225 249 253 234 156 133 160 180 215 243 243 252 257 245 212 188 186 201 240 197 141 143 146 143 156 191 220 215
287 288 287 284 284 282 279 278 276 278 281 282 288 286 287 292 280 243 202 212 217 227 259 209 190 228 291 238 200 171 144 166 176 184 189 187 189 198 196 194 198 199 206 207 190 194 199 205 212 216 222 219 218 226 237 243 247 289 315 274 237 233 235 231 156 132 153 205 231 254 261 260 262 261 250 230 195 181 219 189 145 151 160 158 156 174 202 208
288 286 284 283 284 282 278 274 270 277 281 275 277 263 277 318 325 329 221 235 235 239 256 250 220 235 257 250 189 158 158 179 186 185 185 184 187 194 193 193 201 198 212 218 199 191 201 217 220 217 225 227 223 223 238 254 262 290 300 279 262 251 258 271 219 156 148 143 253 268 269 262 259 264 268 266 243 187 184 192 171 168 170 167 165 177 189 195
286 282 282 282 286 285 275 271 270 276 274 261 262 247 271 330 337 327 309 276 261 248 247 248 243 239 241 249 204 174 194 198 195 191 179 179 188 193 186 189 208 200 205 220 207 190 203 224 228 224 226 230 235 229 229 249 260 277 274 263 271 267 267 277 264 180 141 145 227 254 264 261 257 253 253 261 264 237 190 199 223 204 182 174 171 178 181 183
285 282 283 282 289 285 270 273 275 275 273 259 254 243 275 322 323 313 304 282 277 260 241 234 234 233 228 230 210 198 220 207 198 191 177 178 191 199 193 187 211 212 201 213 212 201 204 217 224 228 231 231 236 236 233 246 246 244 257 248 249 260 264 262 231 157 152 270 260 272 274 267 262 255 244 242 249 262 243 208 222 228 215 196 172 171 177 181
287 284 283 285 290 281 272 279 281 288 286 258 269 258 275 308 314 319 307 274 277 264 242 228 222 224 220 221 211 206 222 224 219 190 173 183 196 202 208 197 208 221 209 210 215 219 221 220 215 211 222 230 230 227 226 252 248 223 239 248 248 249 253 260 252 209 232 309 316 273 278 267 261 259 255 246 230 252 259 230 214 228 236 224 180 173 185 187
287 283 282 287 285 275 280 293 308 332 313 269 311 305 272 299 303 320 316 270 261 247 236 222 212 218 213 210 208 207 218 228 236 205 173 187 200 198 210 208 207 222 217 212 217 221 229 239 225 203 209 220 224 220 206 224 250 232 225 233 251 263 265 271 277 267 224 214 209 217 245 254 246 246 245 248 232 238 253 241 224 230 239 237 198 177 179 176
286 283 283 284 277 263 263 318 106 356 283 253 286 319 252 303 300 307 314 265 258 210 199 189 187 199 198 196 195 202 219 222 229 219 180 185 205 204 207 209 206 223 222 214 222 223 227 250 246 220 221 209 210 224 207 213 235 244 231 219 232 252 265 270 279 283 263 266 262 232 250 266 242 243 237 236 232 231 240 230 220 232 244 247 214 174 164 164
285 283 282 274 272 244 217 221 167 193 281 253 193 347 286 296 291 300 288 251 249 172 158 158 169 180 185 189 184 189 224 210 209 217 198 185 201 214 218 212 202 220 232 221 224 212 209 239 234 213 236 208 200 229 212 214 227 236 244 235 227 228 234 244 260 278 277 281 281 264 265 273 262 262 266 261 240 226 233 223 204 210 243 254 211 168 164 169
285 282 280 269 262 246 231 245 224 211 343 18 59 325 310 286 285 295 267 245 199 154 150 144 147 168 183 188 188 197 228 209 190 206 205 190 193 211 222 226 219 210 221 232 234 200 193 235 226 195 224 225 212 232 219 216 226 235 243 249 260 258 251 249 250 260 260 259 264 257 253 257 260 256 268 280 264 240 247 243 211 189 234 255 196 169 172 171
286 280 278 266 249 258 259 256 234 215 333 356 305 294 286 275 273 257 260 244 160 147 146 141 141 164 182 180 191 207 220 231 201 187 194 192 193 212 227 232 237 222 211 226 243 221 191 224 228 196 217 236 222 228 227 219 217 236 245 244 264 278 289 282 261 255 255 252 250 248 251 256 261 245 247 274 276 269 260 258 262 205 222 259 159 160 169 155
284 275 273 262 223 209 274 263 248 237 269 304 288 271 262 260 245 229 220 208 189 162 139 143 161 176 186 179 190 211 215 224 224 179 185 191 192 214 234 230 238 243 218 213 233 248 219 206 220 217 212 225 232 229 228 226 217 227 244 245 228 233 251 259 258 262 259 255 251 247 250 255 262 256 245 256 54 351 295 256 340 25 71 4 102 143 156 154
281 275 268 253 221 209 221 228 235 317 288 267 257 242 238 241 243 227 182 184 225 159 137 157 180 176 185 193 190 200 212 219 214 187 186 188 188 205 227 224 228 245 235 210 215 242 243 212 208 225 220 225 239 232 223 224 216 217 234 245 237 219 225 234 233 238 242 251 256 251 245 242 253 264 122 80 77 49 5 56 47 47 51 2 36 145 161 170
280 276 264 251 232 218 205 173 152 140 224 232 228 222 227 219 224 232 218 267 198 162 169 183 178 177 188 203 201 186 199 211 196 193 190 186 189 197 210 215 203 214 229 218 202 215 236 233 212 210 219 229 241 231 216 214 206 214 220 216 233 235 224 227 224 223 234 245 250 255 254 242 249 32 78 69 57 61 38 43 55 75 87 312 272 159 163 167
280 274 260 247 235 222 209 183 175 183 199 210 218 228 231 223 218 222 223 226 147 141 215 187 165 186 194 200 211 185 188 202 184 189 198 192 198 200 205 216 209 205 220 219 209 203 215 231 222 210 196 209 229 230 210 209 201 207 215 206 219 233 230 228 224 229 244 248 246 252 256 241 132 64 78 91 58 53 46 40 52 69 162 239 217 155 160 169
276 270 260 245 235 221 207 199 197 197 194 204 225 224 217 229 233 222 222 225 142 116 227 192 158 190 205 212 228 192 186 209 187 186 201 195 202 205 202 215 217 215 223 226 222 215 214 221 225 223 189 184 213 231 228 225 207 199 215 226 222 226 240 241 226 236 249 261 279 266 260 257 160 134 72 79 67 52 43 44 55 56 58 234 196 135 150 187
272 267 262 244 233 219 203 202 200 189 189 213 232 218 208 228 235 229 240 253 137 153 197 207 183 213 214 225 243 212 195 214 193 188 204 201 205 211 200 208 217 216 219 223 226 225 225 222 217 223 212 190 202 223 234 238 222 199 206 228 232 229 238 251 252 266 278 286 296 265 265 40 121 172 142 88 80 65 47 42 52 50 47 46 73 120 149 198
255 268 266 233 215 209 201 203 196 182 195 220 228 219 216 232 230 236 311 349 4 194 180 182 210 230 217 212 233 214 193 204 199 192 205 208 207 211 207 201 207 214 219 219 215 221 228 234 221 212 212 213 209 211 227 238 236 210 207 218 229 235 240 249 256 268 283 268 262 244 199 95 130 159 128 111 96 81 61 49 55 47 38 50 46 29 38 191
198 215 258 227 203 196 193 195 185 181 204 225 227 228 229 236 230 198 358 344 342 341 286 217 205 220 224 213 216 200 179 183 206 207 207 209 206 206 210 206 200 208 219 228 224 205 217 246 243 222 212 216 216 211 220 233 238 235 224 223 221 229 238 245 245 242 238 244 245 240 231 161 160 171 116 105 85 91 80 55 50 43 35 34 33 21 14 15
203 218 258 234 202 193 188 180 176 186 208 225 233 245 254 258 252 37 14 342 326 247 254 258 224 215 227 224 209 194 186 184 200 214 215 206 198 197 207 209 200 203 212 222 228 201 210 238 241 232 222 211 212 215 218 225 232 239 242 237 232 228 229 224 228 236 238 244 249 243 243 178 68 238 139 140 109 96 71 39 22 35 40 27 27 27 14 10
206 221 253 208 177 181 183 174 177 192 210 223 231 243 254 263 269 1 6 328 303 283 258 264 266 241 231 250 253 202 194 195 192 217 230 206 195 227 244 215 198 202 206 210 217 202 205 242 246 234 221 205 207 216 219 213 219 233 240 235 242 245 232 221 216 230 243 244 246 248 242 96 42 348 6 55 89 91 79 55 6 35 50 38 39 49 37 29
202 233 225 172 168 177 175 171 181 197 213 223 234 232 232 243 233 138 353 294 276 274 272 276 285 261 227 259 276 223 189 200 202 220 233 217 208 243 271 248 209 207 209 209 214 204 182 189 254 246 215 207 214 208 221 227 207 212 229 229 230 231 234 246 228 222 248 253 250 255 241 99 40 335 16 69 88 98 100 117 115 63 62 51 51 62 58 52
204 257 203 166 174 171 165 170 188 206 216 217 243 247 237 286 342 132 158 244 267 275 279 292 305 301 286 280 276 239 199 220 221 224 226 247 280 244 293 311 286 232 219 216 214 207 186 172 215 252 224 213 227 210 215 236 228 210 214 221 228 227 222 234 230 218 239 253 261 266 270 78 334 339 30 79 87 93 95 102 95 74 69 60 56 62 63 64
237 259 187 172 174 163 162 181 195 203 222 216 238 250 86 46 298 278 170 200 231 252 252 269 286 294 305 297 288 286 264 246 229 223 214 200 342 308 344 342 321 278 248 243 227 204 201 199 208 238 241 234 241 223 213 232 240 233 222 217 226 233 229 236 235 203 220 251 268 223 108 155 220 44 49 66 73 70 73 87 84 69 64 60 58 58 59 65
246 224 164 168 171 167 175 213 196 199 226 219 241 259 86 123 238 248 249 204 207 225 231 251 267 271 279 276 283 290 280 282 286 271 243 104 71 355 3 358 331 311 304 279 262 210 188 221 225 234 246 248 250 248 245 247 242 236 227 221 228 230 231 244 237 159 178 251 286 256 128 152 158 98 83 84 77 69 63 67 70 64 60 57 55 52 45 41
244 205 168 173 178 184 206 233 190 207 222 199 232 251 226 262 244 229 229 212 193 206 236 259 253 247 262 272 287 280 264 287 294 273 286 71 60 351 0 351 340 350 7 346 323 293 217 204 214 232 234 229 236 244 262 258 247 245 236 229 240 237 228 239 186 146 184 191 169 212 283 149 122 99 103 100 85 75 66 64 63 63 61 54 51 49 38 34
220 211 209 191 189 199 226 247 258 265 237 196 223 245 229 238 245 256 299 273 220 219 251 273 272 263 267 274 286 272 261 269 266 253 284 56 49 21 4 337 347 44 17 335 324 297 257 217 208 235 231 219 232 237 256 263 256 297 280 243 248 249 231 111 85 179 209 209 199 204 164 133 113 109 130 121 101 88 76 72 66 63 64 59 54 52 46 44
177 201 208 187 192 210 228 247 258 267 247 196 207 239 233 226 216 226 272 263 237 258 261 262 276 277 273 274 277 273 265 256 246 248 231 106 84 34 21 6 359 22 24 333 322 312 254 247 250 265 264 273 302 310 322 323 312 309 308 304 299 285 255 162 160 230 115 44 308 270 127 124 124 144 148 124 110 104 85 74 69 67 70 67 62 64 61 56
181 207 204 176 187 213 223 235 237 236 229 195 206 231 231 235 218 185 220 239 225 236 253 259 265 265 266 269 270 287 291 270 249 252 227 116 95 62 50 38 2 327 325 333 331 347 333 270 315 322 302 315 352 319 300 304 309 322 326 334 347 342 319 264 86 42 65 80 5 309 136 134 151 163 139 106 96 93 80 72 72 73 76 75 73 71 68 64
215 268 241 207 192 201 210 228 227 219 213 213 218 265 236 234 223 174 192 240 233 200 218 266 266 252 247 253 250 257 281 283 279 284 309 75 67 40 41 52 353 308 319 7 354 346 242 289 3 356 327 330 350 314 284 292 316 347 353 355 2 5 1 8 44 47 58 92 164 220 154 126 133 130 105 93 89 85 77 71 71 72 70 71 72 68 64 61
241 275 246 211 205 181 172 226 211 196 218 230 207 207 242 238 222 196 183 220 249 220 190 232 263 258 244 254 279 264 256 290 314 336 4 40 59 39 19 27 325 312 337 107 80 3 298 295 355 4 337 314 324 328 303 295 305 6 18 20 13 6 10 29 49 60 68 66 96 134 95 78 80 83 87 93 92 87 79 69 64 64 60 57 59 58 55 53
239 270 257 216 203 120 113 216 181 177 199 250 188 177 228 236 215 227 211 183 220 272 257 254 275 278 266 249 278 321 27 4 335 349 360 11 85 121 115 178 261 296 313 145 109 30 240 240 250 302 300 288 290 327 294 289 290 64 38 30 28 11 354 9 51 70 74 70 105 121 99 71 70 84 91 95 91 85 76 65 57 54 52 53 53 51 50 50
246 270 277 274 241 118 169 207 192 200 185 196 206 163 219 243 195 231 284 260 199 207 255 274 286 300 300 293 297 347 90 67 333 325 332 331 258 153 157 197 210 227 280 277 204 226 236 220 222 256 267 270 249 182 256 300 295 136 68 37 35 36 351 340 49 69 91 148 155 145 123 119 123 106 95 89 83 76 70 64 58 52 48 48 48 46 47 48
271 284 271 264 254 166 211 183 169 212 164 109 124 137 163 264 203 169 286 301 261 194 208 283 327 329 296 286 296 316 18 25 331 317 319 309 280 228 185 240 260 264 260 213 201 219 244 233 235 258 265 270 282 154 154 328 281 214 79 28 11 40 55 38 49 49 54 133 168 153 107 122 130 116 97 82 73 68 63 58 58 56 49 47 47 45 45 49
Height
1496 1497 1497 1496 1496 1496 1495 1495 1495 1494 1494 1494 1494 1493 1493 1493 1492 1492 1491 1491 1490 1490 1490 1489 1489 1489 1488 1487 1486 1485 1484 1483 1483 1482 1480 1479 1480 1481 1481 1482 1481 1482 1482 1484 1486 1487 1488 1489 1490 1491 1492 1491 1491 1489 1488 1487 1486 1485 1485 1488 1485 1478 1471 1462 1461 1462 1459 1462 1464 1465 1467 1468 1467 1465 1465 1464 1463 1461 1461 1464 1467 1469 1471 1474 1477 1481 1483 1482
1495 1496 1496 1496 1495 1495 1495 1494 1494 1493 1493 1493 1493 1492 1492 1492 1491 1491 1490 1490 1490 1489 1489 1489 1488 1488 1487 1486 1485 1484 1483 1482 1481 1479 1477 1477 1479 1479 1480 1480 1480 1481 1481 1483 1485 1487 1488 1489 1490 1490 1491 1489 1488 1487 1486 1484 1484 1484 1482 1485 1481 1471 1463 1458 1461 1461 1461 1467 1467 1466 1468 1469 1469 1466 1466 1465 1462 1459 1462 1466 1469 1470 1472 1474 1477 1480 1482 1483
1494 1495 1495 1495 1494 1494 1494 1493 1493 1493 1493 1492 1492 1492 1491 1490 1490 1490 1489 1489 1488 1488 1488 1488 1488 1487 1486 1485 1484 1483 1482 1481 1479 1475 1474 1476 1477 1478 1479 1479 1479 1480 1481 1483 1485 1487 1488 1488 1489 1489 1489 1487 1485 1485 1483 1481 1482 1481 1481 1482 1475 1465 1461 1459 1461 1462 1464 1468 1467 1467 1469 1469 1469 1466 1467 1466 1463 1460 1462 1467 1469 1471 1473 1474 1477 1479 1480 1483
1494 1494 1494 1494 1494 1493 1493 1492 1492 1492 1492 1491 1491 1490 1490 1489 1489 1489 1488 1488 1488 1487 1487 1487 1487 1486 1486 1485 1484 1483 1481 1480 1476 1473 1473 1474 1476 1477 1478 1478 1478 1479 1481 1483 1485 1487 1487 1488 1488 1488 1488 1485 1482 1481 1480 1479 1479 1478 1479 1478 1468 1461 1464 1463 1462 1465 1467 1469 1470 1470 1470 1470 1468 1468 1469 1466 1466 1464 1462 1466 1468 1472 1474 1474 1477 1479 1481 1483
1493 1493 1493 1493 1493 1492 1492 1492 1491 1491 1491 1490 1490 1489 1489 1488 1488 1488 1487 1487 1487 1486 1486 1487 1486 1486 1485 1484 1484 1482 1483 1480 1474 1472 1473 1474 1475 1476 1477 1477 1478 1479 1481 1482 1484 1487 1487 1487 1487 1487 1486 1483 1480 1479 1478 1477 1477 1476 1474 1472 1466 1463 1466 1464 1464 1468 1469 1470 1471 1470 1469 1469 1467 1469 1469 1466 1467 1464 1463 1465 1467 1471 1474 1474 1476 1479 1482 1484
1492 1492 1492 1492 1492 1492 1491 1491 1491 1490 1490 1489 1489 1488 1488 1487 1487 1487 1486 1486 1486 1486 1486 1486 1485 1485 1484 1484 1483 1482 1483 1478 1473 1473 1473 1474 1475 1476 1476 1477 1477 1479 1480 1482 1483 1486 1486 1485 1485 1485 1485 1482 1478 1476 1476 1475 1475 1476 1472 1468 1466 1466 1466 1465 1466 1469 1470 1472 1471 1470 1469 1469 1469 1470 1468 1466 1465 1462 1463 1467 1468 1471 1474 1475 1476 1478 1481 1483
1491 1491 1491 1491 1491 1491 1490 1490 1490 1489 1489 1488 1488 1487 1487 1486 1486 1485 1485 1485 1485 1485 1485 1485 1485 1484 1484 1484 1482 1482 1482 1476 1472 1474 1473 1474 1475 1475 1476 1476 1477 1478 1479 1481 1482 1484 1484 1484 1483 1482 1482 1481 1477 1474 1473 1472 1472 1475 1472 1467 1465 1465 1466 1466 1467 1469 1471 1472 1471 1471 1470 1470 1471 1471 1467 1465 1464 1462 1465 1468 1469 1472 1475 1477 1478 1479 1482 1483
1490 1491 1491 1490 1490 1490 1490 1489 1489 1488 1488 1487 1486 1486 1485 1485 1484 1484 1484 1484 1484 1484 1485 1485 1484 1484 1483 1483 1482 1482 1479 1474 1472 1473 1473 1474 1475 1475 1476 1476 1477 1478 1478 1480 1481 1483 1483 1482 1481 1481 1480 1477 1474 1471 1470 1471 1471 1472 1472 1468 1465 1464 1466 1467 1468 1470 1471 1471 1471 1471 1471 1470 1470 1469 1466 1465 1465 1463 1465 1468 1470 1474 1476 1478 1480 1482 1483 1485
1489 1490 1490 1490 1489 1489 1489 1488 1487 1487 1486 1486 1485 1485 1484 1484 1483 1483 1484 1484 1484 1484 1484 1484 1483 1483 1483 1482 1483 1482 1476 1472 1472 1472 1473 1473 1474 1474 1475 1475 1476 1477 1479 1480 1481 1482 1482 1481 1480 1479 1478 1474 1472 1469 1468 1471 1471 1468 1468 1467 1465 1465 1465 1467 1467 1469 1469 1469 1470 1469 1469 1468 1468 1468 1467 1465 1465 1464 1466 1469 1471 1475 1478 1480 1482 1484 1485 1485
1489 1488 1489 1488 1488 1488 1488 1487 1486 1485 1485 1485 1484 1484 1483 1482 1482 1482 1483 1483 1483 1483 1483 1483 1482 1482 1482 1481 1483 1480 1474 1472 1472 1472 1472 1473 1473 1473 1474 1475 1476 1477 1479 1481 1481 1481 1480 1480 1479 1478 1477 1474 1473 1470 1468 1470 1469 1465 1466 1465 1465 1465 1464 1465 1466 1467 1468 1467 1468 1468 1468 1466 1465 1467 1467 1463 1462 1464 1467 1470 1472 1477 1480 1481 1483 1483 1484 1485
1487 1487 1487 1487 1487 1487 1487 1486 1485 1484 1484 1483 1483 1483 1482 1481 1481 1481 1481 1482 1482 1482 1482 1482 1481 1482 1481 1481 1482 1477 1472 1473 1473 1471 1472 1472 1472 1473 1473 1474 1476 1478 1480 1480 1480 1480 1480 1479 1479 1478 1477 1475 1474 1472 1469 1468 1467 1465 1466 1466 1465 1465 1465 1464 1464 1465 1467 1467 1466 1466 1466 1465 1464 1466 1465 1460 1460 1464 1467 1469 1474 1478 1480 1482 1482 1482 1483 1484
1486 1486 1486 1486 1486 1486 1485 1485 1484 1483 1482 1482 1482 1481 1481 1480 1480 1480 1480 1480 1480 1481 1481 1480 1481 1480 1480 1480 1478 1473 1471 1473 1473 1472 1472 1471 1472 1473 1474 1475 1476 1478 1479 1480 1480 1480 1480 1479 1479 1478 1476 1476 1475 1472 1470 1468 1467 1466 1466 1469 1468 1465 1465 1463 1462 1464 1465 1466 1464 1464 1468 1467 1464 1464 1461 1457 1459 1463 1466 1469 1474 1478 1481 1484 1484 1484 1485 1485
1485 1485 1485 1485 1485 1484 1484 1483 1482 1482 1481 1481 1481 1480 1480 1479 1478 1478 1478 1479 1479 1479 1479 1479 1479 1479 1480 1477 1471 1469 1471 1473 1472 1472 1472 1472 1473 1473 1475 1476 1476 1477 1479 1479 1480 1480 1480 1480 1480 1479 1477 1477 1474 1472 1470 1467 1467 1467 1466 1469 1470 1468 1464 1458 1458 1461 1462 1463 1460 1465 1475 1471 1460 1458 1457 1456 1458 1462 1464 1468 1474 1477 1481 1483 1486 1488 1487 1487
1483 1484 1484 1484 1484 1483 1482 1482 1481 1480 1480 1480 1479 1479 1478 1478 1477 1477 1477 1478 1478 1478 1478 1478 1478 1478 1479 1474 1468 1469 1471 1471 1472 1471 1472 1472 1473 1474 1475 1476 1477 1478 1478 1479 1479 1479 1480 1480 1481 1480 1478 1476 1472 1471 1470 1467 1467 1468 1467 1468 1469 1471 1463 1450 1452 1458 1460 1460 1458 1466 1477 1470 1456 1452 1452 1452 1455 1460 1462 1466 1472 1476 1479 1482 1485 1487 1487 1488
1482 1482 1482 1482 1482 1482 1481 1480 1480 1479 1479 1478 1478 1478 1477 1477 1476 1476 1476 1476 1476 1477 1477 1477 1477 1477 1477 1471 1467 1468 1469 1470 1470 1470 1471 1472 1473 1474 1474 1475 1477 1478 1478 1479 1479 1479 1479 1480 1481 1479 1477 1475 1473 1473 1471 1468 1467 1466 1471 1472 1467 1467 1459 1445 1447 1454 1458 1458 1457 1467 1474 1466 1454 1445 1443 1448 1454 1459 1461 1464 1469 1473 1477 1481 1483 1485 1487 1488
1481 1481 1480 1480 1481 1480 1480 1479 1478 1477 1477 1477 1477 1476 1476 1475 1475 1475 1474 1475 1476 1476 1476 1477 1476 1477 1475 1469 1466 1467 1467 1467 1468 1469 1470 1471 1472 1473 1474 1475 1476 1477 1478 1478 1479 1479 1480 1479 1479 1478 1476 1473 1473 1473 1471 1470 1467 1464 1470 1470 1463 1461 1456 1449 1449 1450 1452 1456 1458 1465 1468 1462 1452 1441 1440 1448 1455 1457 1460 1463 1468 1472 1476 1480 1483 1485 1487 1488
1479 1479 1479 1479 1479 1479 1478 1478 1477 1476 1476 1476 1476 1475 1475 1474 1473 1473 1473 1474 1474 1474 1476 1475 1476 1477 1472 1466 1465 1464 1463 1465 1466 1468 1468 1470 1471 1472 1474 1475 1475 1477 1477 1478 1479 1478 1479 1478 1478 1477 1474 1472 1469 1470 1475 1477 1471 1464 1464 1465 1460 1454 1451 1451 1452 1449 1448 1454 1459 1462 1463 1460 1453 1445 1445 1451 1455 1455 1458 1463 1465 1469 1474 1478 1483 1486 1487 1488
1478 1478 1477 1477 1477 1477 1477 1476 1476 1475 1475 1475 1474 1474 1473 1472 1472 1472 1472 1473 1473 1475 1476 1474 1476 1477 1467 1460 1461 1459 1460 1463 1464 1466 1467 1469 1470 1471 1473 1474 1475 1476 1477 1477 1477 1477 1477 1476 1476 1475 1473 1472 1469 1468 1477 1476 1465 1460 1460 1461 1459 1452 1447 1449 1451 1449 1449 1456 1460 1461 1461 1459 1453 1449 1448 1451 1454 1455 1457 1460 1463 1466 1471 1475 1482 1489 1490 1489
1476 1476 1476 1476 1476 1476 1476 1475 1474 1474 1474 1474 1474 1473 1472 1471 1470 1470 1470 1472 1472 1472 1471 1469 1470 1468 1459 1455 1457 1457 1458 1461 1463 1464 1466 1468 1469 1470 1471 1473 1474 1474 1475 1475 1475 1474 1475 1475 1475 1476 1473 1471 1468 1465 1467 1463 1453 1452 1452 1452 1455 1454 1449 1445 1446 1447 1449 1457 1461 1461 1461 1458 1454 1451 1448 1449 1452 1456 1457 1458 1463 1467 1469 1474 1480 1488 1491 1489
1475 1475 1475 1474 1475 1475 1474 1474 1473 1473 1473 1473 1473 1472 1471 1470 1468 1467 1469 1470 1468 1465 1462 1462 1463 1460 1456 1455 1456 1457 1459 1461 1462 1463 1465 1466 1468 1469 1470 1471 1471 1472 1472 1471 1471 1471 1472 1475 1475 1474 1471 1466 1464 1462 1459 1454 1450 1451 1451 1448 1448 1450 1447 1441 1443 1446 1447 1457 1461 1459 1460 1458 1455 1452 1447 1447 1450 1453 1457 1459 1463 1466 1469 1472 1475 1480 1485 1486
1474 1474 1473 1473 1473 1473 1473 1473 1472 1472 1473 1472 1472 1471 1470 1469 1467 1467 1468 1466 1462 1460 1459 1459 1461 1459 1456 1455 1454 1456 1459 1460 1461 1462 1463 1465 1467 1467 1467 1468 1468 1470 1469 1466 1467 1467 1469 1473 1471 1466 1464 1460 1459 1459 1457 1455 1453 1454 1456 1453 1448 1448 1446 1441 1442 1443 1445 1457 1463 1459 1461 1459 1456 1453 1449 1447 1448 1450 1453 1457 1461 1464 1466 1469 1471 1475 1480 1484
1473 1472 1472 1472 1472 1472 1472 1471 1471 1472 1472 1472 1472 1470 1470 1470 1469 1469 1469 1464 1458 1458 1457 1457 1458 1457 1456 1455 1454 1456 1457 1457 1458 1459 1461 1463 1465 1465 1464 1465 1466 1465 1465 1464 1464 1466 1470 1470 1465 1460 1458 1457 1457 1455 1455 1456 1456 1458 1459 1457 1456 1452 1449 1447 1443 1440 1443 1455 1462 1460 1462 1460 1455 1452 1451 1449 1447 1446 1449 1453 1458 1460 1462 1465 1468 1473 1478 1481
1472 1471 1471 1471 1471 1472 1471 1471 1471 1471 1471 1471 1470 1469 1469 1470 1470 1469 1469 1464 1457 1453 1453 1453 1454 1454 1454 1454 1454 1456 1456 1454 1455 1456 1458 1461 1462 1462 1461 1462 1463 1461 1461 1462 1461 1465 1469 1466 1459 1457 1456 1456 1457 1454 1455 1456 1456 1460 1461 1461 1460 1455 1454 1454 1447 1443 1444 1450 1456 1460 1462 1459 1454 1451 1449 1448 1447 1446 1446 1449 1453 1456 1458 1461 1464 1468 1473 1477
1470 1470 1471 1470 1471 1471 1470 1470 1470 1470 1470 1470 1469 1468 1469 1470 1469 1469 1468 1463 1455 1449 1448 1448 1449 1450 1451 1452 1453 1455 1455 1453 1452 1452 1455 1459 1459 1460 1459 1458 1460 1459 1457 1457 1457 1459 1460 1455 1450 1453 1454 1455 1456 1454 1456 1460 1460 1461 1461 1461 1459 1455 1454 1453 1448 1446 1448 1451 1455 1462 1468 1464 1456 1455 1451 1446 1446 1446 1445 1444 1449 1453 1455 1457 1459 1463 1468 1473
1469 1469 1469 1470 1470 1469 1469 1470 1469 1470 1470 1469 1469 1468 1470 1470 1469 1469 1468 1463 1454 1444 1443 1443 1444 1446 1447 1450 1451 1452 1453 1453 1450 1449 1452 1455 1456 1457 1456 1455 1457 1457 1455 1453 1454 1455 1452 1446 1443 1447 1450 1451 1454 1454 1456 1463 1465 1462 1459 1458 1457 1455 1453 1451 1449 1449 1452 1458 1456 1461 1477 1473 1455 1454 1453 1447 1446 1446 1444 1443 1445 1450 1452 1453 1455 1459 1465 1469
1468 1469 1469 1469 1469 1468 1469 1468 1468 1470 1469 1469 1470 1468 1470 1470 1469 1469 1467 1463 1452 1438 1437 1440 1440 1441 1443 1445 1448 1451 1453 1451 1448 1449 1450 1452 1454 1454 1454 1453 1453 1453 1451 1449 1450 1451 1448 1444 1441 1444 1447 1448 1452 1455 1456 1460 1465 1464 1455 1452 1455 1455 1455 1454 1453 1453 1457 1461 1454 1452 1470 1472 1456 1449 1447 1444 1445 1444 1442 1442 1444 1448 1450 1450 1452 1457 1462 1466
1467 1468 1468 1468 1468 1468 1468 1467 1468 1469 1468 1470 1469 1469 1471 1469 1469 1469 1466 1467 1454 1434 1434 1439 1438 1439 1440 1443 1446 1451 1451 1445 1445 1448 1447 1449 1452 1452 1452 1450 1450 1451 1447 1447 1451 1447 1444 1446 1444 1446 1449 1450 1455 1457 1454 1455 1463 1463 1452 1448 1451 1450 1453 1453 1454 1458 1459 1460 1457 1450 1456 1466 1461 1450 1442 1440 1441 1440 1441 1440 1441 1446 1450 1450 1451 1456 1460 1464
1466 1466 1467 1468 1468 1468 1467 1467 1468 1467 1468 1470 1468 1470 1470 1468 1470 1467 1468 1471 1449 1427 1430 1436 1437 1439 1439 1442 1445 1445 1444 1439 1441 1444 1444 1447 1450 1450 1450 1447 1446 1448 1444 1448 1452 1443 1441 1445 1444 1446 1452 1453 1455 1454 1451 1452 1458 1456 1448 1447 1447 1444 1446 1448 1453 1459 1457 1462 1467 1456 1453 1465 1465 1451 1443 1441 1440 1440 1441 1439 1438 1443 1449 1449 1450 1455 1459 1463
1465 1466 1466 1467 1467 1467 1467 1467 1466 1466 1467 1468 1469 1470 1468 1469 1470 1465 1471 1466 1436 1421 1430 1433 1436 1439 1438 1441 1443 1442 1440 1437 1437 1439 1442 1446 1447 1448 1449 1446 1444 1443 1442 1446 1447 1440 1438 1442 1441 1445 1452 1452 1451 1449 1447 1449 1452 1450 1446 1447 1448 1449 1450 1452 1457 1458 1458 1466 1470 1459 1453 1463 1464 1449 1444 1447 1447 1446 1444 1441 1439 1442 1447 1450 1451 1456 1460 1464
1464 1464 1465 1466 1466 1466 1466 1466 1466 1466 1467 1468 1470 1469 1468 1470 1468 1468 1475 1459 1427 1421 1430 1432 1434 1436 1436 1438 1440 1439 1438 1436 1434 1435 1439 1443 1446 1448 1447 1446 1444 1440 1438 1441 1443 1439 1435 1438 1440 1442 1447 1448 1447 1446 1444 1445 1446 1447 1448 1448 1451 1454 1455 1458 1458 1456 1466 1473 1464 1454 1450 1459 1465 1452 1443 1449 1451 1449 1447 1446 1446 1446 1448 1453 1456 1460 1463 1465
1463 1463 1464 1464 1464 1464 1464 1465 1466 1467 1468 1469 1468 1468 1469 1469 1465 1469 1465 1441 1424 1424 1427 1430 1431 1430 1434 1436 1436 1437 1436 1434 1434 1435 1438 1440 1443 1447 1447 1446 1446 1444 1441 1440 1443 1441 1438 1439 1440 1439 1440 1442 1445 1445 1442 1442 1444 1447 1450 1453 1459 1461 1460 1464 1462 1462 1478 1479 1460 1449 1444 1452 1464 1455 1446 1449 1448 1447 1450 1451 1452 1452 1454 1458 1462 1465 1466 1467
1462 1462 1462 1462 1463 1463 1463 1463 1464 1465 1467 1468 1468 1468 1469 1468 1467 1466 1449 1429 1428 1428 1422 1425 1427 1426 1431 1431 1430 1432 1434 1433 1433 1433 1435 1437 1441 1443 1445 1445 1444 1451 1452 1445 1443 1444 1441 1439 1437 1439 1441 1443 1447 1447 1445 1444 1446 1450 1452 1458 1470 1473 1471 1475 1473 1470 1476 1470 1454 1446 1444 1450 1459 1453 1450 1453 1450 1449 1452 1452 1454 1455 1456 1461 1467 1469 1467 1466
1460 1460 1460 1461 1461 1461 1462 1463 1463 1464 1465 1466 1468 1467 1467 1468 1463 1452 1439 1428 1428 1424 1415 1417 1421 1423 1426 1427 1426 1425 1429 1431 1430 1433 1434 1435 1439 1440 1442 1441 1439 1447 1451 1444 1443 1445 1446 1442 1436 1437 1441 1443 1447 1448 1450 1448 1446 1450 1452 1458 1471 1477 1481 1483 1477 1473 1472 1462 1449 1443 1445 1454 1460 1458 1456 1456 1455 1453 1452 1454 1456 1457 1459 1463 1467 1468 1466 1465
1459 1458 1459 1459 1459 1459 1460 1462 1463 1464 1465 1467 1468 1466 1468 1469 1454 1437 1431 1425 1419 1419 1416 1413 1417 1422 1423 1424 1421 1418 1425 1429 1426 1431 1434 1433 1439 1440 1439 1440 1437 1439 1442 1442 1442 1441 1448 1450 1439 1433 1436 1441 1444 1444 1444 1442 1441 1446 1446 1451 1460 1465 1473 1477 1472 1473 1472 1462 1454 1450 1452 1457 1463 1466 1460 1455 1456 1455 1455 1458 1458 1461 1464 1465 1466 1467 1466 1466
1457 1457 1457 1457 1457 1458 1458 1461 1462 1464 1466 1467 1466 1464 1465 1463 1447 1433 1428 1420 1416 1418 1418 1416 1420 1425 1425 1423 1419 1414 1420 1426 1423 1428 1432 1432 1436 1437 1435 1437 1436 1435 1439 1445 1442 1435 1443 1445 1433 1429 1431 1435 1441 1440 1437 1438 1440 1441 1441 1449 1454 1451 1454 1460 1461 1462 1465 1468 1464 1458 1457 1458 1461 1464 1458 1456 1459 1458 1459 1461 1461 1464 1465 1465 1467 1467 1468 1468
1457 1456 1456 1455 1456 1457 1457 1460 1461 1463 1465 1465 1465 1461 1456 1448 1437 1431 1427 1422 1420 1419 1418 1423 1426 1427 1426 1423 1419 1415 1417 1422 1422 1425 1428 1428 1430 1430 1429 1430 1431 1432 1434 1439 1439 1437 1444 1442 1428 1428 1432 1431 1435 1437 1435 1439 1440 1438 1441 1447 1446 1440 1442 1453 1459 1456 1462 1476 1470 1456 1458 1463 1463 1464 1459 1458 1461 1460 1463 1464 1464 1466 1466 1466 1469 1469 1471 1472
1456 1456 1456 1455 1455 1456 1457 1459 1460 1463 1465 1464 1462 1455 1446 1436 1427 1426 1428 1427 1426 1422 1424 1430 1427 1425 1426 1422 1417 1415 1417 1422 1424 1425 1426 1426 1426 1425 1425 1425 1426 1428 1429 1431 1433 1433 1442 1445 1432 1428 1432 1430 1430 1434 1434 1434 1435 1437 1442 1441 1437 1438 1439 1446 1460 1464 1468 1477 1468 1453 1459 1467 1469 1470 1464 1462 1465 1465 1465 1466 1467 1468 1469 1470 1470 1471 1473 1475
1455 1455 1455 1454 1455 1456 1457 1459 1460 1463 1464 1462 1459 1451 1441 1434 1426 1425 1430 1430 1428 1427 1429 1431 1424 1419 1421 1420 1416 1413 1416 1423 1426 1425 1425 1425 1423 1420 1420 1422 1422 1423 1424 1427 1431 1429 1435 1446 1438 1426 1428 1429 1427 1433 1436 1434 1431 1434 1437 1434 1436 1448 1450 1448 1459 1470 1472 1475 1470 1456 1456 1468 1474 1471 1467 1466 1468 1469 1469 1470 1472 1472 1472 1473 1472 1471 1473 1475
1454 1455 1455 1453 1455 1456 1457 1458 1460 1462 1462 1459 1455 1448 1440 1434 1429 1429 1433 1433 1431 1431 1431 1429 1424 1419 1418 1418 1416 1412 1415 1422 1426 1429 1427 1424 1425 1421 1417 1418 1418 1419 1421 1422 1429 1430 1433 1447 1445 1427 1423 1428 1428 1432 1438 1437 1433 1433 1434 1433 1435 1442 1447 1447 1450 1458 1464 1471 1473 1463 1461 1476 1482 1473 1470 1470 1468 1470 1474 1476 1478 1477 1476 1477 1476 1475 1476 1477
1455 1456 1455 1453 1455 1456 1456 1458 1460 1460 1459 1454 1449 1442 1434 1430 1428 1430 1435 1435 1432 1432 1432 1428 1425 1423 1420 1419 1418 1414 1416 1422 1425 1430 1429 1424 1426 1424 1418 1417 1416 1416 1418 1419 1424 1428 1431 1446 1452 1434 1423 1429 1433 1431 1434 1435 1433 1436 1440 1440 1439 1438 1439 1443 1444 1446 1453 1463 1469 1467 1472 1484 1483 1475 1474 1472 1470 1473 1475 1478 1480 1478 1479 1481 1481 1481 1480 1480
1455 1456 1454 1453 1454 1454 1456 1458 1458 1456 1453 1449 1443 1436 1430 1428 1429 1431 1435 1437 1435 1433 1433 1431 1429 1428 1425 1424 1421 1417 1419 1423 1425 1428 1429 1428 1430 1429 1424 1421 1418 1417 1420 1421 1422 1426 1431 1441 1451 1443 1432 1433 1432 1426 1428 1429 1427 1431 1437 1438 1439 1437 1440 1451 1455 1449 1448 1455 1462 1469 1483 1492 1483 1476 1477 1475 1475 1476 1476 1479 1480 1478 1480 1482 1483 1484 1483 1482
1455 1455 1452 1451 1452 1453 1455 1455 1453 1451 1448 1443 1438 1433 1431 1433 1433 1433 1434 1436 1436 1435 1434 1433 1433 1432 1430 1429 1426 1422 1423 1425 1424 1426 1429 1431 1435 1435 1429 1427 1424 1422 1424 1424 1422 1423 1428 1434 1445 1446 1437 1431 1427 1421 1423 1425 1423 1424 1428 1430 1432 1433 1437 1450 1460 1457 1452 1453 1454 1462 1482 1492 1483 1476 1479 1479 1479 1480 1480 1481 1481 1480 1481 1482 1484 1486 1485 1484
1454 1453 1452 1452 1452 1453 1454 1452 1448 1447 1443 1438 1435 1433 1433 1436 1436 1435 1434 1435 1435 1435 1434 1434 1434 1433 1432 1431 1428 1427 1428 1429 1427 1426 1429 1432 1436 1436 1432 1431 1431 1430 1430 1432 1429 1426 1429 1436 1445 1447 1438 1429 1425 1421 1422 1423 1422 1424 1425 1425 1428 1430 1432 1437 1443 1451 1456 1459 1461 1467 1479 1487 1481 1474 1478 1481 1482 1483 1484 1483 1482 1482 1483 1483 1486 1488 1487 1486
1452 1452 1452 1453 1453 1453 1455 1451 1445 1443 1439 1436 1437 1436 1434 1436 1436 1434 1434 1433 1433 1434 1436 1435 1434 1434 1433 1431 1431 1431 1431 1434 1434 1430 1431 1435 1437 1437 1436 1435 1436 1437 1439 1442 1440 1436 1436 1440 1445 1451 1451 1445 1438 1436 1435 1431 1426 1426 1425 1426 1429 1426 1427 1433 1436 1445 1455 1458 1462 1473 1483 1484 1477 1474 1477 1481 1483 1486 1486 1485 1485 1485 1485 1487 1488 1489 1489 1488
1452 1451 1452 1453 1453 1453 1454 1451 1446 1443 1437 1436 1439 1438 1436 1437 1437 1435 1435 1434 1433 1435 1437 1437 1434 1433 1433 1432 1434 1433 1431 1434 1436 1432 1433 1437 1438 1438 1439 1439 1439 1441 1443 1444 1442 1440 1440 1441 1445 1453 1458 1459 1457 1453 1449 1441 1436 1435 1432 1431 1433 1426 1427 1442 1448 1451 1459 1458 1455 1466 1480 1483 1478 1476 1480 1482 1484 1488 1488 1488 1488 1488 1489 1491 1491 1491 1491 1490
1451 1452 1451 1452 1453 1453 1452 1450 1448 1443 1438 1438 1442 1440 1438 1438 1437 1437 1439 1437 1436 1437 1438 1438 1436 1435 1436 1436 1437 1437 1432 1432 1434 1432 1433 1440 1442 1441 1442 1443 1444 1444 1444 1445 1443 1441 1442 1442 1444 1449 1454 1459 1461 1457 1451 1446 1445 1446 1443 1439 1439 1433 1431 1443 1454 1457 1462 1466 1466 1466 1470 1479 1482 1479 1481 1484 1485 1489 1490 1490 1492 1492 1493 1493 1493 1493 1493 1492
1451 1450 1448 1448 1451 1450 1449 1446 1443 1440 1438 1439 1442 1440 1438 1438 1437 1439 1441 1439 1438 1439 1439 1438 1437 1437 1439 1439 1440 1441 1437 1433 1432 1430 1432 1440 1443 1442 1444 1448 1450 1448 1446 1446 1444 1444 1448 1449 1448 1449 1452 1455 1457 1458 1459 1456 1451 1450 1451 1449 1447 1443 1438 1442 1454 1459 1459 1470 1483 1480 1471 1476 1481 1479 1480 1485 1487 1490 1492 1493 1494 1494 1494 1495 1495 1494 1494 1495
1450 1449 1446 1445 1445 1444 1443 1441 1438 1437 1438 1439 1440 1440 1440 1440 1440 1441 1442 1439 1438 1439 1441 1441 1439 1437 1437 1437 1439 1442 1441 1438 1436 1433 1436 1443 1445 1446 1448 1451 1452 1451 1448 1449 1448 1446 1450 1453 1452 1452 1454 1454 1455 1458 1459 1456 1452 1453 1457 1458 1456 1455 1452 1453 1460 1463 1462 1469 1481 1482 1476 1476 1480 1481 1483 1485 1489 1492 1493 1494 1495 1495 1495 1496 1495 1495 1496 1495
1449 1449 1446 1443 1440 1439 1440 1439 1437 1438 1439 1439 1439 1441 1442 1441 1441 1441 1440 1440 1440 1439 1440 1444 1442 1437 1434 1435 1437 1440 1441 1444 1446 1443 1443 1447 1451 1453 1454 1456 1455 1451 1450 1452 1452 1449 1451 1456 1455 1455 1457 1456 1456 1459 1461 1459 1457 1458 1459 1461 1463 1465 1463 1463 1466 1466 1467 1471 1474 1475 1479 1482 1485 1488 1487 1487 1490 1492 1494 1495 1495 1496 1497 1497 1496 1496 1496 1495
1450 1448 1445 1442 1439 1438 1439 1439 1439 1439 1440 1440 1441 1441 1441 1441 1442 1441 1439 1441 1444 1442 1440 1442 1441 1437 1435 1434 1437 1441 1443 1446 1449 1449 1447 1449 1452 1455 1457 1459 1457 1454 1451 1452 1452 1451 1455 1459 1457 1455 1458 1458 1456 1461 1466 1466 1464 1464 1464 1464 1466 1472 1473 1469 1467 1469 1472 1475 1477 1480 1486 1490 1491 1490 1490 1490 1492 1493 1495 1496 1497 1498 1498 1498 1498 1497 1497 1496
1449 1447 1445 1442 1439 1439 1440 1439 1439 1439 1440 1440 1441 1441 1442 1441 1441 1442 1440 1438 1441 1444 1443 1442 1441 1440 1438 1437 1439 1442 1444 1445 1447 1447 1446 1447 1449 1451 1453 1453 1453 1453 1452 1451 1452 1452 1453 1457 1456 1456 1460 1460 1457 1460 1465 1469 1470 1470 1472 1472 1471 1477 1482 1476 1470 1473 1476 1478 1481 1483 1486 1491 1493 1492 1492 1494 1494 1495 1498 1499 1499 1500 1500 1500 1500 1499 1499 1498
1448 1446 1446 1443 1440 1439 1439 1437 1438 1440 1440 1440 1441 1442 1443 1442 1439 1441 1445 1442 1438 1440 1442 1442 1443 1445 1445 1444 1444 1444 1444 1446 1448 1447 1447 1447 1445 1445 1448 1449 1448 1449 1449 1450 1452 1452 1451 1454 1454 1456 1461 1461 1456 1459 1465 1473 1479 1479 1480 1482 1478 1478 1482 1481 1476 1476 1476 1478 1481 1482 1483 1489 1492 1493 1495 1497 1498 1499 1501 1501 1502 1502 1502 1502 1502 1502 1502 1502